Watson Lake Airport
CYQH : rendu visible

Aérodrome :











RETROUVEZ-NOUS SUR...

 
LOGIN :

S'inscrire | Disclaimer

   EN    FR    IT 

 









Légende :    VFR   VFR Marginal   IFR   IFR Intensif   IFR Très Intensif
Visi : 
Plafond : 
>= 8 km
>= 3000ft
5 à 8 km
1000 à 3000 ft
1500m à 5 km
500 à 1000 ft
800 à 1500m
200 à 500 ft
< 800m
< 200 ft
Symboles :   Orages  Brouillard  Fortes neiges  Fortes précipitations  Vent > 20 kt






- Altitude de l'aérodrome : 2255 ft
- Code IATA : YQH


CYQH - Watson Lake

DERNIER METAR :
  • 281200Z 26005KT 230V310 30SM SCT100 06/03 A3019 RMK AC4 CLIMAT 9.3/4.5/0.0 SLP242

METARs EXPIRÉS :
  • 281100Z VRB02KT 20SM BKN110 06/02 A3019 RMK AC6 SLP240
  • 281000Z 00000KT 30SM BKN110 06/00 A3018 RMK AC6 SLP240

TAF TAF CYQH
Valide du 28 à 12h jusqu'au 29 à 00h UTC


281138Z 2812/2824 VRB03KT P6SM BKN120
FM281400 09006KT P6SM SCT080
FM282100 10012KT P6SM BKN070
TEMPO 2821/2824 P6SM -SHRA RMK NXT FCST BY 281800Z
FIR CZEG / Amérique du Nord



MET'MAP, la Météo Aéronautique d'un coup d'oeil ! - Copyright ORBIFLY Décembre 2007 - Disclaimer

ORBIFLY MET'MAP TEAM :

Programmation & Développement : Alexandra Zaïnal
Sur une idée originale de : Baudouin d'Aumeries
Assistance à la programmation : Marc-Olivier Méhu
Soutien technique & logistique : Manuel Goepfert

Contact : metmap@orbifly.com




SOURCES & CREDITS :

   NOAA       Earth
Advisory